Location: Palomar Mountain Lodge
(33.3110°N, 116.8495°W)
Time: 03:32:15
(UTC-07:00)

OAO 1 Rocket - Pass Details

Date: 12 July 2018
Orbit: 743 x 756 km, 35.0° (Epoch: 24 September)

Event Time Altitude Azimuth Distance (km) Brightness Sun altitude
Rises 22:20:06 0° 248° (WSW) 3,161 7.9 -23.9°
Reaches altitude 10° 22:22:33 10° 247° (WSW) 2,240 7.1 -24.2°
Enters shadow 22:27:37 73° 184° (S) 774 4.3 -24.9°
